Time,TemperatureF,DewpointF,PressureIn,WindDirection,WindDirectionDegrees,WindSpeedMPH,WindSpeedGustMPH,Humidity,HourlyPrecipIn,Conditions,Clouds,dailyrainin,SolarRadiationWatts/m^2,SoftwareType,DateUTC
2013-01-10 00:00:00,69.5,68.3,30.31,ENE,72,1.0,7.0,96,0.00,,OVC008,0.00,0.00,VWS V14.01,2013-01-10 05:00:00,
2013-01-10 00:01:00,69.5,68.3,30.31,ENE,74,2.0,7.0,96,0.00,,OVC008,0.00,0.00,VWS V14.01,2013-01-10 05:01:00,
2013-01-10 00:06:00,69.4,68.2,30.31,ENE,72,1.0,3.0,96,0.00,,OVC008,0.00,0.00,VWS V14.01,2013-01-10 05:06:00,
2013-01-10 00:11:00,69.2,68.0,30.31,ENE,72,1.0,3.0,96,0.00,,OVC008,0.00,0.00,VWS V14.01,2013-01-10 05:11:00,
2013-01-10 00:16:00,69.2,68.0,30.31,NE,38,1.0,3.0,96,0.00,,OVC008,0.00,0.00,VWS V14.01,2013-01-10 05:16:00,
2013-01-10 00:21:00,69.0,67.8,30.31,ENE,68,2.0,3.0,96,0.00,,BKN008,0.00,0.00,VWS V14.01,2013-01-10 05:21:00,
2013-01-10 00:26:00,68.9,67.7,30.31,ENE,73,0.0,4.0,96,0.00,,BKN008,0.00,0.00,VWS V14.01,2013-01-10 05:26:00,
2013-01-10 00:32:00,68.9,67.7,30.31,ENE,74,1.0,1.0,96,0.00,,BKN008,0.00,0.00,VWS V14.01,2013-01-10 05:32:00,
2013-01-10 00:37:00,68.8,67.6,30.31,NE,51,2.0,2.0,96,0.00,,BKN008,0.00,0.00,VWS V14.01,2013-01-10 05:37:00,
2013-01-10 00:42:00,68.8,67.6,30.31,ENE,70,2.0,2.0,96,0.00,,OVC008,0.00,0.00,VWS V14.01,2013-01-10 05:42:00,
2013-01-10 00:47:00,68.7,67.5,30.31,NE,51,1.0,2.0,96,0.00,,OVC008,0.00,0.00,VWS V14.01,2013-01-10 05:47:00,
2013-01-10 00:52:00,68.6,67.7,30.31,East,80,2.0,4.0,97,0.00,,OVC008,0.00,0.00,VWS V14.01,2013-01-10 05:52:00,
2013-01-10 00:57:00,68.7,67.8,30.31,ENE,58,1.0,4.0,97,0.00,,OVC008,0.00,0.00,VWS V14.01,2013-01-10 05:57:00,
2013-01-10 01:02:00,68.8,67.9,30.31,ENE,72,4.0,4.0,97,0.00,,OVC008,0.00,0.00,VWS V14.01,2013-01-10 06:02:00,
2013-01-10 01:07:00,68.8,67.9,30.30,ENE,63,3.0,5.0,97,0.00,,OVC008,0.00,0.00,VWS V14.01,2013-01-10 06:07:00,
2013-01-10 01:12:00,68.6,67.7,30.30,East,79,2.0,5.0,97,0.00,,OVC008,0.00,0.00,VWS V14.01,2013-01-10 06:12:00,
2013-01-10 01:17:00,68.6,67.7,30.30,ENE,74,2.0,5.0,97,0.00,,OVC008,0.00,0.00,VWS V14.01,2013-01-10 06:17:00,
2013-01-10 01:22:00,68.6,67.7,30.30,ENE,72,2.0,5.0,97,0.00,,OVC008,0.00,0.00,VWS V14.01,2013-01-10 06:22:00,
2013-01-10 01:27:00,68.5,67.6,30.31,East,82,1.0,6.0,97,0.00,,OVC008,0.00,0.00,VWS V14.01,2013-01-10 06:27:00,
2013-01-10 01:32:00,68.6,67.7,30.31,East,92,2.0,5.0,97,0.00,,OVC008,0.00,0.00,VWS V14.01,2013-01-10 06:32:00,
2013-01-10 01:37:00,68.8,67.9,30.31,ESE,103,2.0,5.0,97,0.00,,OVC008,0.00,0.00,VWS V14.01,2013-01-10 06:37:00,
2013-01-10 01:42:00,68.9,68.0,30.30,ESE,103,2.0,7.0,97,0.00,,OVC006,0.00,0.00,VWS V14.01,2013-01-10 06:42:00,
2013-01-10 01:47:00,69.0,68.1,30.31,East,86,2.0,7.0,97,0.00,,OVC006,0.00,0.00,VWS V14.01,2013-01-10 06:47:00,
2013-01-10 01:52:00,69.1,68.2,30.31,East,93,3.0,7.0,97,0.00,,OVC006,0.00,0.00,VWS V14.01,2013-01-10 06:52:00,
2013-01-10 01:57:00,69.1,68.2,30.30,ESE,102,4.0,7.0,97,0.00,,OVC006,0.00,0.00,VWS V14.01,2013-01-10 06:57:00,
2013-01-10 02:02:00,69.1,68.2,30.30,ESE,110,2.0,5.0,97,0.00,,OVC006,0.00,0.00,VWS V14.01,2013-01-10 07:02:00,
2013-01-10 02:07:00,69.0,68.1,30.30,ESE,106,2.0,6.0,97,0.00,,OVC006,0.00,0.00,VWS V14.01,2013-01-10 07:07:00,
2013-01-10 02:12:00,69.0,68.1,30.30,East,94,3.0,7.0,97,0.00,,OVC006,0.00,0.00,VWS V14.01,2013-01-10 07:12:00,
2013-01-10 02:17:00,69.0,68.1,30.30,East,93,5.0,7.0,97,0.00,,OVC006,0.00,0.00,VWS V14.01,2013-01-10 07:17:00,
2013-01-10 02:22:00,69.1,68.2,30.30,ESE,106,8.0,11.0,97,0.00,,OVC005,0.00,0.00,VWS V14.01,2013-01-10 07:22:00,
2013-01-10 02:27:00,69.1,68.5,30.30,ESE,106,5.0,11.0,98,0.00,,OVC005,0.00,0.00,VWS V14.01,2013-01-10 07:27:00,
2013-01-10 02:32:00,69.1,68.2,30.30,ESE,111,5.0,6.0,97,0.00,,OVC005,0.00,0.00,VWS V14.01,2013-01-10 07:32:00,
2013-01-10 02:37:00,69.0,68.1,30.30,ESE,103,3.0,10.0,97,0.00,,OVC005,0.00,0.00,VWS V14.01,2013-01-10 07:37:00,
2013-01-10 02:42:00,69.0,68.1,30.30,ESE,102,4.0,10.0,97,0.00,,OVC005,0.00,0.00,VWS V14.01,2013-01-10 07:42:00,
2013-01-10 02:47:00,68.9,68.0,30.30,ESE,109,2.0,10.0,97,0.00,,OVC005,0.00,0.00,VWS V14.01,2013-01-10 07:47:00,
2013-01-10 02:52:00,68.8,67.9,30.30,East,101,3.0,10.0,97,0.00,,OVC005,0.00,0.00,VWS V14.01,2013-01-10 07:52:00,
2013-01-10 02:57:00,68.8,67.9,30.30,East,89,6.0,10.0,97,0.00,,OVC004,0.00,0.00,VWS V14.01,2013-01-10 07:57:00,
2013-01-10 03:02:00,68.8,68.2,30.30,East,88,3.0,3.0,98,0.00,,OVC004,0.00,0.00,VWS V14.01,2013-01-10 08:02:00,
2013-01-10 03:07:00,68.8,68.2,30.30,East,84,3.0,5.0,98,0.00,,OVC004,0.00,0.00,VWS V14.01,2013-01-10 08:07:00,
2013-01-10 03:12:00,68.8,68.2,30.29,East,88,3.0,6.0,98,0.00,,OVC004,0.00,0.00,VWS V14.01,2013-01-10 08:12:00,
2013-01-10 03:17:00,68.8,68.2,30.29,East,92,3.0,6.0,98,0.00,,OVC004,0.00,0.00,VWS V14.01,2013-01-10 08:17:00,
2013-01-10 03:22:00,68.8,68.2,30.29,East,94,1.0,6.0,98,0.00,,OVC004,0.00,0.00,VWS V14.01,2013-01-10 08:22:00,
2013-01-10 03:27:00,68.8,68.2,30.29,East,95,2.0,6.0,98,0.00,,OVC004,0.00,0.00,VWS V14.01,2013-01-10 08:27:00,
2013-01-10 03:32:00,68.7,68.1,30.29,East,87,2.0,6.0,98,0.00,,OVC004,0.00,0.00,VWS V14.01,2013-01-10 08:32:00,
2013-01-10 03:37:00,68.7,68.1,30.29,ENE,67,3.0,6.0,98,0.00,,OVC004,0.00,0.00,VWS V14.01,2013-01-10 08:37:00,
2013-01-10 03:42:00,68.7,68.1,30.29,ENE,76,2.0,6.0,98,0.00,,OVC004,0.00,0.00,VWS V14.01,2013-01-10 08:42:00,
2013-01-10 03:47:00,68.7,68.1,30.28,East,92,3.0,7.0,98,0.00,,OVC004,0.00,0.00,VWS V14.01,2013-01-10 08:47:00,
2013-01-10 03:52:00,68.6,68.0,30.28,East,99,2.0,7.0,98,0.00,,OVC004,0.00,0.00,VWS V14.01,2013-01-10 08:52:00,
2013-01-10 03:58:00,68.6,68.0,30.28,ENE,66,0.0,7.0,98,0.00,,OVC005,0.00,0.00,VWS V14.01,2013-01-10 08:58:00,
2013-01-10 04:02:00,68.6,68.0,30.28,East,79,1.0,5.0,98,0.00,,OVC005,0.00,0.00,VWS V14.01,2013-01-10 09:02:00,
2013-01-10 04:07:00,68.5,67.9,30.28,East,87,3.0,5.0,98,0.00,,OVC005,0.00,0.00,VWS V14.01,2013-01-10 09:07:00,
2013-01-10 04:12:00,68.5,67.9,30.28,East,90,0.0,7.0,98,0.00,,OVC005,0.00,0.00,VWS V14.01,2013-01-10 09:12:00,
2013-01-10 04:18:00,68.5,67.9,30.28,East,82,3.0,7.0,98,0.00,,OVC005,0.00,0.00,VWS V14.01,2013-01-10 09:18:00,
2013-01-10 04:23:00,68.5,67.9,30.28,East,84,1.0,7.0,98,0.00,,OVC005,0.00,0.00,VWS V14.01,2013-01-10 09:23:00,
2013-01-10 04:28:00,68.4,67.8,30.28,ENE,75,3.0,7.0,98,0.00,,OVC005,0.00,0.00,VWS V14.01,2013-01-10 09:28:00,
2013-01-10 04:33:00,68.3,67.7,30.28,East,88,3.0,6.0,98,0.00,,OVC005,0.00,0.00,VWS V14.01,2013-01-10 09:33:00,
2013-01-10 04:38:00,68.3,67.7,30.28,East,98,1.0,6.0,98,0.00,,OVC006,0.00,0.00,VWS V14.01,2013-01-10 09:38:00,
2013-01-10 04:43:00,68.3,67.7,30.28,ENE,77,4.0,8.0,98,0.00,,OVC006,0.00,0.00,VWS V14.01,2013-01-10 09:43:00,
2013-01-10 04:48:00,68.3,67.7,30.27,East,84,5.0,8.0,98,0.00,,OVC006,0.00,0.00,VWS V14.01,2013-01-10 09:48:00,
2013-01-10 04:53:00,68.3,67.7,30.27,East,92,3.0,8.0,98,0.00,,OVC006,0.00,0.00,VWS V14.01,2013-01-10 09:53:00,
2013-01-10 04:58:00,68.4,67.8,30.27,ENE,72,4.0,8.0,98,0.00,,OVC006,0.00,0.00,VWS V14.01,2013-01-10 09:58:00,
2013-01-10 05:03:00,68.4,67.8,30.27,NE,53,1.0,6.0,98,0.00,,OVC006,0.00,0.00,VWS V14.01,2013-01-10 10:03:00,
2013-01-10 05:08:00,68.4,67.8,30.27,East,88,2.0,6.0,98,0.00,,OVC006,0.00,0.00,VWS V14.01,2013-01-10 10:08:00,
2013-01-10 05:13:00,68.5,67.9,30.27,ESE,115,5.0,7.0,98,0.00,,OVC006,0.00,0.00,VWS V14.01,2013-01-10 10:13:00,
2013-01-10 05:18:00,68.5,67.9,30.28,ESE,106,0.0,7.0,98,0.00,,OVC006,0.00,0.00,VWS V14.01,2013-01-10 10:18:00,
2013-01-10 05:23:00,68.5,67.9,30.28,ENE,74,4.0,7.0,98,0.00,,OVC006,0.00,0.00,VWS V14.01,2013-01-10 10:23:00,
2013-01-10 05:28:00,68.5,67.9,30.28,ESE,113,2.0,7.0,98,0.00,,OVC006,0.00,0.00,VWS V14.01,2013-01-10 10:28:00,
2013-01-10 05:33:00,68.5,67.9,30.28,East,89,1.0,5.0,98,0.00,,OVC006,0.00,0.00,VWS V14.01,2013-01-10 10:33:00,
2013-01-10 05:38:00,68.5,67.9,30.28,ESE,117,2.0,5.0,98,0.00,,OVC006,0.00,0.00,VWS V14.01,2013-01-10 10:38:00,
2013-01-10 05:43:00,68.5,67.9,30.29,ENE,70,2.0,7.0,98,0.00,,OVC006,0.00,0.00,VWS V14.01,2013-01-10 10:43:00,
2013-01-10 05:48:00,68.5,67.9,30.29,ENE,78,3.0,7.0,98,0.00,,OVC006,0.00,0.00,VWS V14.01,2013-01-10 10:48:00,
2013-01-10 05:53:00,68.5,67.9,30.29,East,79,3.0,7.0,98,0.00,,OVC006,0.00,0.00,VWS V14.01,2013-01-10 10:53:00,
2013-01-10 05:58:00,68.5,67.9,30.29,NE,52,2.0,7.0,98,0.00,,OVC006,0.00,0.00,VWS V14.01,2013-01-10 10:58:00,
2013-01-10 06:03:00,68.5,67.9,30.29,East,80,2.0,3.0,98,0.00,,OVC006,0.00,0.00,VWS V14.01,2013-01-10 11:03:00,
2013-01-10 06:08:00,68.5,67.9,30.29,East,88,1.0,3.0,98,0.00,,OVC006,0.00,0.00,VWS V14.01,2013-01-10 11:08:00,
2013-01-10 06:13:00,68.5,67.9,30.29,ESE,105,2.0,5.0,98,0.00,,OVC006,0.00,0.00,VWS V14.01,2013-01-10 11:13:00,
2013-01-10 06:18:00,68.5,67.9,30.29,ENE,69,4.0,5.0,98,0.00,,OVC005,0.00,0.00,VWS V14.01,2013-01-10 11:18:00,
2013-01-10 06:23:00,68.5,67.9,30.29,ENE,74,3.0,5.0,98,0.00,,OVC005,0.00,0.00,VWS V14.01,2013-01-10 11:23:00,
2013-01-10 06:28:00,68.5,67.9,30.29,ESE,107,1.0,5.0,98,0.00,,OVC005,0.00,0.00,VWS V14.01,2013-01-10 11:28:00,
2013-01-10 06:33:00,68.4,67.8,30.29,ENE,65,2.0,3.0,98,0.00,,OVC005,0.00,0.00,VWS V14.01,2013-01-10 11:33:00,
2013-01-10 06:38:00,68.4,67.8,30.29,ENE,76,1.0,5.0,98,0.00,,OVC005,0.00,0.00,VWS V14.01,2013-01-10 11:38:00,
2013-01-10 06:43:00,68.4,67.8,30.30,ESE,107,4.0,6.0,98,0.00,,OVC005,0.00,0.00,VWS V14.01,2013-01-10 11:43:00,
2013-01-10 06:48:00,68.3,67.7,30.30,East,93,2.0,6.0,98,0.00,,OVC005,0.00,0.00,VWS V14.01,2013-01-10 11:48:00,
2013-01-10 06:53:00,68.3,67.7,30.29,East,82,5.0,7.0,98,0.00,,OVC005,0.00,0.00,VWS V14.01,2013-01-10 11:53:00,
2013-01-10 06:58:00,68.3,67.7,30.30,East,101,2.0,7.0,98,0.00,,,0.00,0.00,VWS V14.01,2013-01-10 11:58:00,
2013-01-10 07:03:00,68.2,67.6,30.30,East,99,3.0,6.0,98,0.00,,,0.00,0.00,VWS V14.01,2013-01-10 12:03:00,
2013-01-10 07:08:00,68.1,67.5,30.30,East,84,0.0,6.0,98,0.00,,,0.00,0.00,VWS V14.01,2013-01-10 12:08:00,
2013-01-10 07:13:00,68.1,67.5,30.30,East,100,3.0,6.0,98,0.00,,,0.00,0.00,VWS V14.01,2013-01-10 12:13:00,
2013-01-10 07:18:00,68.1,67.5,30.30,East,94,3.0,6.0,98,0.00,,,0.00,0.00,VWS V14.01,2013-01-10 12:18:00,
2013-01-10 07:23:00,68.1,67.5,30.30,ENE,66,1.0,6.0,98,0.00,,,0.00,0.00,VWS V14.01,2013-01-10 12:23:00,
2013-01-10 07:28:00,68.1,67.5,30.30,ENE,70,1.0,6.0,98,0.00,,,0.00,0.00,VWS V14.01,2013-01-10 12:28:00,
2013-01-10 07:33:00,68.1,67.5,30.30,ENE,77,1.0,3.0,98,0.00,,,0.00,5.00,VWS V14.01,2013-01-10 12:33:00,
2013-01-10 07:38:00,68.1,67.8,30.31,ENE,70,4.0,8.0,99,0.00,,,0.00,7.00,VWS V14.01,2013-01-10 12:38:00,
2013-01-10 07:43:00,68.0,67.7,30.30,ENE,67,1.0,8.0,99,0.00,,,0.00,9.00,VWS V14.01,2013-01-10 12:43:00,
2013-01-10 07:48:00,68.0,67.7,30.31,ENE,78,3.0,8.0,99,0.00,,,0.00,12.00,VWS V14.01,2013-01-10 12:48:00,
2013-01-10 07:53:00,68.0,67.7,30.31,ENE,65,1.0,8.0,99,0.00,,,0.00,19.00,VWS V14.01,2013-01-10 12:53:00,
2013-01-10 07:58:00,68.0,67.7,30.30,East,92,3.0,8.0,99,0.00,,,0.00,19.00,VWS V14.01,2013-01-10 12:58:00,
2013-01-10 08:03:00,68.0,67.7,30.31,NE,46,3.0,3.0,99,0.00,,,0.00,18.00,VWS V14.01,2013-01-10 13:03:00,
2013-01-10 08:08:00,68.0,67.7,30.31,ENE,59,1.0,7.0,99,0.00,,,0.00,26.00,VWS V14.01,2013-01-10 13:08:00,
2013-01-10 08:13:00,68.0,67.7,30.31,ENE,65,4.0,7.0,99,0.00,,,0.00,23.00,VWS V14.01,2013-01-10 13:13:00,
2013-01-10 08:18:00,68.1,67.8,30.31,East,87,2.0,7.0,99,0.00,,,0.00,28.00,VWS V14.01,2013-01-10 13:18:00,
2013-01-10 08:23:00,68.1,67.8,30.31,East,99,2.0,7.0,99,0.00,,,0.00,35.00,VWS V14.01,2013-01-10 13:23:00,
2013-01-10 08:28:00,68.1,67.8,30.31,East,80,3.0,7.0,99,0.00,,,0.00,56.00,VWS V14.01,2013-01-10 13:28:00,
2013-01-10 08:33:00,68.1,67.8,30.31,East,86,3.0,7.0,99,0.00,,,0.00,86.00,VWS V14.01,2013-01-10 13:33:00,
2013-01-10 08:38:00,68.2,67.9,30.31,ENE,77,3.0,7.0,99,0.00,,,0.00,54.00,VWS V14.01,2013-01-10 13:38:00,
2013-01-10 08:43:00,68.1,67.8,30.31,East,94,2.0,7.0,99,0.00,,,0.00,42.00,VWS V14.01,2013-01-10 13:43:00,
2013-01-10 08:48:00,68.1,67.8,30.31,East,94,2.0,8.0,99,0.00,,,0.00,58.00,VWS V14.01,2013-01-10 13:48:00,
2013-01-10 08:53:00,68.3,67.7,30.31,ESE,109,8.0,8.0,98,0.00,,,0.00,118.00,VWS V14.01,2013-01-10 13:53:00,
2013-01-10 08:58:00,68.5,67.9,30.31,ESE,107,3.0,8.0,98,0.00,,OVC005,0.00,98.00,VWS V14.01,2013-01-10 13:58:00,
2013-01-10 09:03:00,68.6,68.3,30.31,East,98,6.0,8.0,99,0.00,,OVC005,0.00,81.00,VWS V14.01,2013-01-10 14:03:00,
2013-01-10 09:08:00,68.7,68.4,30.31,ESE,119,4.0,8.0,99,0.00,,OVC005,0.00,127.00,VWS V14.01,2013-01-10 14:08:00,
2013-01-10 09:13:00,68.8,68.5,30.31,East,82,7.0,8.0,99,0.00,,OVC005,0.00,134.00,VWS V14.01,2013-01-10 14:13:00,
2013-01-10 09:18:00,69.0,68.4,30.31,ESE,106,3.0,8.0,98,0.00,,OVC005,0.00,211.00,VWS V14.01,2013-01-10 14:18:00,
2013-01-10 09:23:00,69.3,68.7,30.31,East,83,3.0,8.0,98,0.00,,OVC005,0.00,188.00,VWS V14.01,2013-01-10 14:23:00,
2013-01-10 09:29:00,69.5,68.9,30.31,ESE,109,7.0,8.0,98,0.00,,OVC005,0.00,111.00,VWS V14.01,2013-01-10 14:29:00,
2013-01-10 09:34:00,69.4,68.8,30.31,SE,126,7.0,8.0,98,0.00,,OVC005,0.00,111.00,VWS V14.01,2013-01-10 14:34:00,
2013-01-10 09:39:00,69.5,68.9,30.32,SE,136,4.0,9.0,98,0.00,,OVC005,0.00,167.00,VWS V14.01,2013-01-10 14:39:00,
2013-01-10 09:44:00,70.3,69.4,30.31,ESE,115,7.0,9.0,97,0.00,,OVC005,0.00,250.00,VWS V14.01,2013-01-10 14:44:00,
2013-01-10 09:49:00,70.5,69.6,30.31,ESE,119,7.0,9.0,97,0.00,,OVC005,0.00,227.00,VWS V14.01,2013-01-10 14:49:00,
2013-01-10 09:54:00,71.0,69.8,30.31,East,87,5.0,9.0,96,0.00,,OVC005,0.00,390.00,VWS V14.01,2013-01-10 14:54:00,
2013-01-10 09:59:00,71.2,69.7,30.31,SE,136,8.0,9.0,95,0.00,,OVC005,0.00,364.00,VWS V14.01,2013-01-10 14:59:00,
2013-01-10 10:04:00,71.1,69.6,30.31,ESE,105,4.0,9.0,95,0.00,,BKN008,0.00,373.00,VWS V14.01,2013-01-10 15:04:00,
2013-01-10 10:09:00,71.8,70.0,30.30,ESE,113,7.0,9.0,94,0.00,,BKN008,0.00,420.00,VWS V14.01,2013-01-10 15:09:00,
2013-01-10 10:14:00,72.2,70.1,30.30,SE,130,9.0,12.0,93,0.00,,BKN008,0.00,475.00,VWS V14.01,2013-01-10 15:14:00,
2013-01-10 10:19:00,72.8,70.3,30.30,ESE,121,8.0,12.0,92,0.00,,BKN008,0.00,176.00,VWS V14.01,2013-01-10 15:19:00,
2013-01-10 10:24:00,73.2,70.1,30.30,ESE,112,11.0,12.0,90,0.00,,BKN008,0.00,490.00,VWS V14.01,2013-01-10 15:24:00,
2013-01-10 10:29:00,73.6,70.2,30.29,ESE,111,8.0,13.0,89,0.00,,BKN014,0.00,476.00,VWS V14.01,2013-01-10 15:29:00,
2013-01-10 10:34:00,74.1,70.3,30.29,ESE,110,14.0,14.0,88,0.00,,BKN014,0.00,469.00,VWS V14.01,2013-01-10 15:34:00,
2013-01-10 10:39:00,74.3,69.8,30.29,ESE,115,8.0,14.0,86,0.00,,BKN014,0.00,483.00,VWS V14.01,2013-01-10 15:39:00,
2013-01-10 10:44:00,75.0,70.5,30.29,ESE,104,5.0,14.0,86,0.00,,BKN014,0.00,471.00,VWS V14.01,2013-01-10 15:44:00,
2013-01-10 10:49:00,75.6,70.4,30.29,ESE,115,10.0,14.0,84,0.00,,BKN014,0.00,519.00,VWS V14.01,2013-01-10 15:49:00,
2013-01-10 10:54:00,75.7,69.8,30.28,ESE,108,5.0,14.0,82,0.00,,BKN014,0.00,455.00,VWS V14.01,2013-01-10 15:54:00,
2013-01-10 10:59:00,75.9,69.3,30.28,ESE,106,7.0,15.0,80,0.00,,BKN017,0.00,531.00,VWS V14.01,2013-01-10 15:59:00,
2013-01-10 11:04:00,76.1,69.5,30.28,East,98,10.0,12.0,80,0.00,,BKN017,0.00,541.00,VWS V14.01,2013-01-10 16:04:00,
2013-01-10 11:09:00,75.6,68.6,30.27,ESE,105,15.0,18.0,79,0.00,,BKN017,0.00,167.00,VWS V14.01,2013-01-10 16:09:00,
2013-01-10 11:14:00,76.4,68.7,30.27,ESE,110,16.0,18.0,77,0.00,,BKN017,0.00,599.00,VWS V14.01,2013-01-10 16:14:00,
2013-01-10 11:19:00,75.5,67.8,30.27,SE,144,13.0,18.0,77,0.00,,BKN017,0.00,227.00,VWS V14.01,2013-01-10 16:19:00,
2013-01-10 11:24:00,75.3,67.2,30.26,SE,136,13.0,18.0,76,0.00,,BKN017,0.00,149.00,VWS V14.01,2013-01-10 16:24:00,
2013-01-10 11:29:00,76.1,68.0,30.26,SE,137,12.0,18.0,76,0.00,,BKN017,0.00,726.00,VWS V14.01,2013-01-10 16:29:00,
2013-01-10 11:34:00,77.2,67.5,30.26,SE,129,11.0,16.0,72,0.00,,BKN017,0.00,756.00,VWS V14.01,2013-01-10 16:34:00,
2013-01-10 11:39:00,77.8,67.7,30.26,East,92,11.0,18.0,71,0.00,,BKN017,0.00,628.00,VWS V14.01,2013-01-10 16:39:00,
2013-01-10 11:44:00,78.0,67.8,30.25,East,98,11.0,18.0,71,0.00,,BKN017,0.00,501.00,VWS V14.01,2013-01-10 16:44:00,
2013-01-10 11:49:00,77.6,67.1,30.25,East,89,9.0,18.0,70,0.00,,BKN017,0.00,206.00,VWS V14.01,2013-01-10 16:49:00,
2013-01-10 11:54:00,76.9,66.8,30.25,ESE,106,8.0,18.0,71,0.00,,BKN017,0.00,197.00,VWS V14.01,2013-01-10 16:54:00,
2013-01-10 11:59:00,77.4,67.3,30.25,East,101,9.0,18.0,71,0.00,,SCT039,0.00,185.00,VWS V14.01,2013-01-10 16:59:00,
2013-01-10 12:04:00,76.8,67.1,30.25,East,101,3.0,10.0,72,0.00,,SCT039,0.00,155.00,VWS V14.01,2013-01-10 17:04:00,
2013-01-10 12:09:00,76.4,66.7,30.24,East,101,7.0,11.0,72,0.00,,SCT039,0.00,185.00,VWS V14.01,2013-01-10 17:09:00,
2013-01-10 12:14:00,76.3,67.0,30.24,ESE,105,7.0,11.0,73,0.00,,SCT039,0.00,153.00,VWS V14.01,2013-01-10 17:14:00,
2013-01-10 12:19:00,76.5,66.4,30.24,ESE,112,11.0,15.0,71,0.00,,SCT039,0.00,137.00,VWS V14.01,2013-01-10 17:19:00,
2013-01-10 12:24:00,76.7,66.2,30.24,East,96,10.0,16.0,70,0.00,,SCT039,0.00,172.00,VWS V14.01,2013-01-10 17:24:00,
2013-01-10 12:29:00,77.6,66.6,30.23,SE,137,7.0,16.0,69,0.00,,SCT039,0.00,232.00,VWS V14.01,2013-01-10 17:29:00,
2013-01-10 12:34:00,77.9,66.9,30.23,East,89,7.0,14.0,69,0.00,,SCT039,0.00,229.00,VWS V14.01,2013-01-10 17:34:00,
2013-01-10 12:39:00,78.5,67.5,30.23,East,84,7.0,14.0,69,0.00,,SCT039,0.00,691.00,VWS V14.01,2013-01-10 17:39:00,
2013-01-10 12:44:00,78.4,66.1,30.23,East,88,7.0,14.0,66,0.00,,SCT039,0.00,336.00,VWS V14.01,2013-01-10 17:44:00,
2013-01-10 12:49:00,79.2,66.4,30.23,ENE,78,5.0,14.0,65,0.00,,SCT039,0.00,735.00,VWS V14.01,2013-01-10 17:49:00,
2013-01-10 12:54:00,79.8,67.4,30.23,East,92,2.0,14.0,66,0.00,,SCT039,0.00,679.00,VWS V14.01,2013-01-10 17:54:00,
2013-01-10 12:59:00,78.9,65.2,30.23,ESE,112,13.0,14.0,63,0.00,,BKN041,0.00,181.00,VWS V14.01,2013-01-10 17:59:00,
2013-01-10 13:04:00,79.5,65.8,30.23,ESE,121,15.0,16.0,63,0.00,,BKN041,0.00,383.00,VWS V14.01,2013-01-10 18:04:00,
2013-01-10 13:09:00,80.2,66.5,30.23,SE,128,4.0,16.0,63,0.00,,BKN041,0.00,689.00,VWS V14.01,2013-01-10 18:09:00,
2013-01-10 13:14:00,81.4,65.7,30.23,ESE,109,14.0,16.0,59,0.00,,BKN041,0.00,652.00,VWS V14.01,2013-01-10 18:14:00,
2013-01-10 13:19:00,80.8,65.2,30.23,ESE,113,8.0,16.0,59,0.00,,BKN041,0.00,671.00,VWS V14.01,2013-01-10 18:19:00,
2013-01-10 13:24:00,80.4,64.8,30.23,ESE,117,7.0,16.0,59,0.00,,BKN041,0.00,622.00,VWS V14.01,2013-01-10 18:24:00,
2013-01-10 13:29:00,80.8,64.7,30.23,ESE,108,11.0,16.0,58,0.00,,BKN041,0.00,686.00,VWS V14.01,2013-01-10 18:29:00,
2013-01-10 13:34:00,80.8,64.7,30.23,ESE,105,7.0,15.0,58,0.00,,BKN041,0.00,675.00,VWS V14.01,2013-01-10 18:34:00,
2013-01-10 13:39:00,81.7,65.0,30.23,ENE,69,9.0,15.0,57,0.00,,BKN041,0.00,682.00,VWS V14.01,2013-01-10 18:39:00,
2013-01-10 13:44:00,81.4,64.7,30.23,ESE,121,10.0,15.0,57,0.00,,BKN041,0.00,645.00,VWS V14.01,2013-01-10 18:44:00,
2013-01-10 13:49:00,80.9,63.8,30.23,SE,134,6.0,15.0,56,0.00,,BKN041,0.00,605.00,VWS V14.01,2013-01-10 18:49:00,
2013-01-10 13:54:00,80.6,64.5,30.23,ESE,116,3.0,15.0,58,0.00,,BKN041,0.00,612.00,VWS V14.01,2013-01-10 18:54:00,
2013-01-10 13:59:00,81.3,64.1,30.23,ENE,78,8.0,15.0,56,0.00,,SCT050,0.00,670.00,VWS V14.01,2013-01-10 18:59:00,
2013-01-10 14:04:00,81.1,64.4,30.22,SE,136,9.0,12.0,57,0.00,,SCT050,0.00,652.00,VWS V14.01,2013-01-10 19:04:00,
2013-01-10 14:09:00,81.5,65.3,30.22,East,84,11.0,12.0,58,0.00,,SCT050,0.00,608.00,VWS V14.01,2013-01-10 19:09:00,
2013-01-10 14:14:00,81.4,64.7,30.22,East,88,9.0,13.0,57,0.00,,SCT050,0.00,545.00,VWS V14.01,2013-01-10 19:14:00,
2013-01-10 14:19:00,81.2,64.0,30.22,East,85,6.0,13.0,56,0.00,,SCT050,0.00,508.00,VWS V14.01,2013-01-10 19:19:00,
2013-01-10 14:24:00,81.7,64.0,30.22,ESE,119,8.0,13.0,55,0.00,,SCT050,0.00,446.00,VWS V14.01,2013-01-10 19:24:00,
2013-01-10 14:29:00,81.1,62.9,30.22,SE,144,9.0,14.0,54,0.00,,SCT050,0.00,434.00,VWS V14.01,2013-01-10 19:29:00,
2013-01-10 14:34:00,81.3,64.1,30.22,SE,128,9.0,14.0,56,0.00,,SCT050,0.00,406.00,VWS V14.01,2013-01-10 19:34:00,
2013-01-10 14:39:00,80.9,63.8,30.23,ESE,108,9.0,16.0,56,0.00,,SCT050,0.00,494.00,VWS V14.01,2013-01-10 19:39:00,
2013-01-10 14:45:00,81.1,64.9,30.22,ESE,121,5.0,16.0,58,0.00,,SCT050,0.00,538.00,VWS V14.01,2013-01-10 19:45:00,
2013-01-10 14:50:00,81.7,64.0,30.23,East,97,10.0,16.0,55,0.00,,SCT050,0.00,573.00,VWS V14.01,2013-01-10 19:50:00,
2013-01-10 14:55:00,81.4,63.7,30.23,SSE,148,11.0,16.0,55,0.00,,SCT050,0.00,596.00,VWS V14.01,2013-01-10 19:55:00,
2013-01-10 15:00:00,80.9,63.8,30.23,SE,126,10.0,16.0,56,0.00,,SCT050,0.00,464.00,VWS V14.01,2013-01-10 20:00:00,
2013-01-10 15:05:00,81.2,64.0,30.23,SE,142,7.0,11.0,56,0.00,,SCT050,0.00,520.00,VWS V14.01,2013-01-10 20:05:00,
2013-01-10 15:10:00,80.5,63.9,30.23,ESE,111,8.0,11.0,57,0.00,,SCT050,0.00,102.00,VWS V14.01,2013-01-10 20:10:00,
2013-01-10 15:15:00,80.2,64.1,30.24,ESE,110,3.0,11.0,58,0.00,,SCT050,0.00,487.00,VWS V14.01,2013-01-10 20:15:00,
2013-01-10 15:20:00,80.2,64.1,30.24,SE,137,6.0,11.0,58,0.00,,SCT050,0.00,487.00,VWS V14.01,2013-01-10 20:20:00,
2013-01-10 15:25:00,81.2,64.5,30.24,SE,134,7.0,11.0,57,0.00,,SCT050,0.00,185.00,VWS V14.01,2013-01-10 20:25:00,
2013-01-10 15:30:00,81.2,64.5,30.23,ESE,107,7.0,11.0,57,0.00,,SCT050,0.00,445.00,VWS V14.01,2013-01-10 20:30:00,
2013-01-10 15:35:00,80.7,64.1,30.24,ESE,115,5.0,12.0,57,0.00,,SCT050,0.00,418.00,VWS V14.01,2013-01-10 20:35:00,
2013-01-10 15:54:00,81.0,64.3,30.24,ESE,114,8.0,13.0,57,0.00,,SCT050,0.00,420.00,VWS V14.01,2013-01-10 20:54:00,
2013-01-10 16:00:00,81.0,63.8,30.23,ESE,123,10.0,13.0,56,0.00,,SCT050,0.00,346.00,VWS V14.01,2013-01-10 21:00:00,
2013-01-10 16:05:00,80.2,63.6,30.23,ESE,110,7.0,12.0,57,0.00,,SCT050,0.00,72.00,VWS V14.01,2013-01-10 21:05:00,
2013-01-10 16:10:00,79.6,64.5,30.23,East,98,8.0,12.0,60,0.00,,SCT050,0.00,74.00,VWS V14.01,2013-01-10 21:10:00,
2013-01-10 16:15:00,79.3,64.2,30.23,ESE,105,4.0,12.0,60,0.00,,SCT050,0.00,109.00,VWS V14.01,2013-01-10 21:15:00,
2013-01-10 16:20:00,79.3,64.2,30.23,ESE,117,5.0,12.0,60,0.00,,SCT050,0.00,111.00,VWS V14.01,2013-01-10 21:20:00,
2013-01-10 16:25:00,79.5,63.9,30.23,ESE,104,10.0,12.0,59,0.00,,SCT050,0.00,153.00,VWS V14.01,2013-01-10 21:25:00,
2013-01-10 16:30:00,79.9,64.3,30.23,ENE,71,2.0,12.0,59,0.00,,SCT050,0.00,93.00,VWS V14.01,2013-01-10 21:30:00,
2013-01-10 16:35:00,79.5,64.4,30.23,ENE,78,2.0,10.0,60,0.00,,SCT050,0.00,100.00,VWS V14.01,2013-01-10 21:35:00,
2013-01-10 16:40:00,79.1,65.0,30.23,ENE,66,3.0,14.0,62,0.00,,SCT050,0.00,188.00,VWS V14.01,2013-01-10 21:40:00,
2013-01-10 16:45:00,79.2,65.1,30.23,ESE,120,3.0,14.0,62,0.00,,SCT050,0.00,139.00,VWS V14.01,2013-01-10 21:45:00,
2013-01-10 16:50:00,79.0,65.3,30.23,East,82,10.0,14.0,63,0.00,,SCT050,0.00,141.00,VWS V14.01,2013-01-10 21:50:00,
2013-01-10 16:55:00,78.9,65.2,30.23,East,88,6.0,14.0,63,0.00,,SCT050,0.00,118.00,VWS V14.01,2013-01-10 21:55:00,
2013-01-10 17:00:00,78.5,65.3,30.23,ENE,74,11.0,14.0,64,0.00,,FEW060,0.00,53.00,VWS V14.01,2013-01-10 22:00:00,
2013-01-10 17:05:00,78.2,65.9,30.23,East,88,3.0,15.0,66,0.00,,FEW060,0.00,35.00,VWS V14.01,2013-01-10 22:05:00,
2013-01-10 17:10:00,77.8,66.0,30.23,East,88,8.0,15.0,67,0.00,,FEW060,0.00,25.00,VWS V14.01,2013-01-10 22:10:00,
2013-01-10 17:15:00,77.3,65.9,30.23,East,83,10.0,15.0,68,0.00,,FEW060,0.00,23.00,VWS V14.01,2013-01-10 22:15:00,
2013-01-10 17:20:00,77.0,66.1,30.23,ENE,71,5.0,15.0,69,0.00,,FEW060,0.00,19.00,VWS V14.01,2013-01-10 22:20:00,
2013-01-10 17:25:00,76.6,66.1,30.23,East,86,6.0,15.0,70,0.00,,FEW060,0.00,16.00,VWS V14.01,2013-01-10 22:25:00,
2013-01-10 17:30:00,76.4,66.3,30.23,ENE,76,9.0,15.0,71,0.00,,FEW060,0.00,12.00,VWS V14.01,2013-01-10 22:30:00,
2013-01-10 17:35:00,76.2,66.5,30.23,ENE,78,7.0,15.0,72,0.00,,FEW060,0.00,9.00,VWS V14.01,2013-01-10 22:35:00,
2013-01-10 17:54:00,75.0,66.6,30.24,East,86,6.0,15.0,75,0.00,,FEW060,0.00,0.00,VWS V14.01,2013-01-10 22:54:00,
2013-01-10 17:59:00,74.7,66.6,30.24,ESE,111,4.0,15.0,76,0.00,,SCT060,0.00,0.00,VWS V14.01,2013-01-10 22:59:00,
2013-01-10 18:04:00,74.4,66.3,30.24,East,94,6.0,14.0,76,0.00,,SCT060,0.00,0.00,VWS V14.01,2013-01-10 23:04:00,
2013-01-10 18:10:00,74.2,66.5,30.24,ESE,103,5.0,14.0,77,0.00,,SCT060,0.00,0.00,VWS V14.01,2013-01-10 23:10:00,
2013-01-10 18:15:00,73.9,66.6,30.24,ENE,67,5.0,14.0,78,0.00,,SCT060,0.00,0.00,VWS V14.01,2013-01-10 23:15:00,
2013-01-10 18:20:00,73.7,66.4,30.25,ENE,76,9.0,14.0,78,0.00,,SCT060,0.00,0.00,VWS V14.01,2013-01-10 23:20:00,
2013-01-10 18:25:00,73.4,66.1,30.25,ESE,102,4.0,14.0,78,0.00,,SCT060,0.00,0.00,VWS V14.01,2013-01-10 23:25:00,
2013-01-10 18:30:00,73.3,66.4,30.25,ENE,78,7.0,14.0,79,0.00,,SCT060,0.00,0.00,VWS V14.01,2013-01-10 23:30:00,
2013-01-10 18:35:00,73.1,66.2,30.25,ESE,109,4.0,13.0,79,0.00,,SCT060,0.00,0.00,VWS V14.01,2013-01-10 23:35:00,
2013-01-10 18:40:00,73.0,66.1,30.25,East,82,6.0,13.0,79,0.00,,SCT060,0.00,0.00,VWS V14.01,2013-01-10 23:40:00,
2013-01-10 18:45:00,72.8,65.9,30.25,ESE,119,4.0,13.0,79,0.00,,SCT060,0.00,0.00,VWS V14.01,2013-01-10 23:45:00,
2013-01-10 18:50:00,72.8,65.9,30.25,East,95,7.0,13.0,79,0.00,,SCT060,0.00,0.00,VWS V14.01,2013-01-10 23:50:00,
2013-01-10 18:55:00,72.6,66.1,30.25,ENE,69,5.0,13.0,80,0.00,,SCT060,0.00,0.00,VWS V14.01,2013-01-10 23:55:00,
2013-01-10 19:00:00,72.5,66.0,30.25,ESE,114,7.0,13.0,80,0.00,,SCT060,0.00,0.00,VWS V14.01,2013-01-11 00:00:00,
2013-01-10 19:05:00,72.3,65.8,30.25,ESE,111,5.0,9.0,80,0.00,,SCT060,0.00,0.00,VWS V14.01,2013-01-11 00:05:00,
2013-01-10 19:10:00,72.2,65.7,30.25,ENE,76,5.0,10.0,80,0.00,,SCT060,0.00,0.00,VWS V14.01,2013-01-11 00:10:00,
2013-01-10 19:15:00,71.9,65.8,30.25,East,94,7.0,10.0,81,0.00,,SCT060,0.00,0.00,VWS V14.01,2013-01-11 00:15:00,
2013-01-10 19:20:00,71.6,65.5,30.25,East,82,5.0,10.0,81,0.00,,SCT060,0.00,0.00,VWS V14.01,2013-01-11 00:20:00,
2013-01-10 19:25:00,71.6,65.5,30.24,East,82,7.0,10.0,81,0.00,,SCT060,0.00,0.00,VWS V14.01,2013-01-11 00:25:00,
2013-01-10 19:30:00,71.5,65.7,30.24,ESE,106,4.0,10.0,82,0.00,,SCT060,0.00,0.00,VWS V14.01,2013-01-11 00:30:00,
2013-01-10 19:35:00,71.4,65.6,30.24,ENE,78,5.0,9.0,82,0.00,,SCT060,0.00,0.00,VWS V14.01,2013-01-11 00:35:00,
2013-01-10 19:40:00,71.4,65.6,30.25,East,95,6.0,10.0,82,0.00,,SCT060,0.00,0.00,VWS V14.01,2013-01-11 00:40:00,
2013-01-10 19:45:00,71.2,65.8,30.25,East,90,8.0,10.0,83,0.00,,SCT060,0.00,0.00,VWS V14.01,2013-01-11 00:45:00,
2013-01-10 19:50:00,71.1,65.7,30.25,East,87,7.0,10.0,83,0.00,,SCT060,0.00,0.00,VWS V14.01,2013-01-11 00:50:00,
2013-01-10 19:55:00,71.1,65.7,30.25,ESE,109,5.0,10.0,83,0.00,,SCT060,0.00,0.00,VWS V14.01,2013-01-11 00:55:00,
2013-01-10 20:00:00,71.0,65.6,30.25,East,88,5.0,10.0,83,0.00,,CLR,0.00,0.00,VWS V14.01,2013-01-11 01:00:00,
2013-01-10 20:05:00,70.8,65.7,30.25,East,99,5.0,9.0,84,0.00,,CLR,0.00,0.00,VWS V14.01,2013-01-11 01:05:00,
2013-01-10 20:11:00,70.8,65.7,30.25,SE,129,2.0,9.0,84,0.00,,CLR,0.00,0.00,VWS V14.01,2013-01-11 01:11:00,
2013-01-10 20:16:00,70.7,65.6,30.26,East,82,2.0,9.0,84,0.00,,CLR,0.00,0.00,VWS V14.01,2013-01-11 01:16:00,
2013-01-10 20:21:00,70.4,65.7,30.26,East,94,5.0,9.0,85,0.00,,CLR,0.00,0.00,VWS V14.01,2013-01-11 01:21:00,
2013-01-10 20:26:00,70.4,65.7,30.26,East,96,3.0,9.0,85,0.00,,CLR,0.00,0.00,VWS V14.01,2013-01-11 01:26:00,
2013-01-10 20:31:00,70.3,65.6,30.26,ESE,103,4.0,9.0,85,0.00,,CLR,0.00,0.00,VWS V14.01,2013-01-11 01:31:00,
2013-01-10 20:36:00,70.1,65.7,30.27,ESE,109,2.0,5.0,86,0.00,,CLR,0.00,0.00,VWS V14.01,2013-01-11 01:36:00,
2013-01-10 20:41:00,70.0,65.6,30.27,East,95,3.0,7.0,86,0.00,,CLR,0.00,0.00,VWS V14.01,2013-01-11 01:41:00,
2013-01-10 20:46:00,69.9,65.5,30.27,ESE,105,2.0,7.0,86,0.00,,CLR,0.00,0.00,VWS V14.01,2013-01-11 01:46:00,
2013-01-10 20:51:00,69.8,65.4,30.27,East,93,2.0,7.0,86,0.00,,CLR,0.00,0.00,VWS V14.01,2013-01-11 01:51:00,
2013-01-10 20:56:00,69.7,65.3,30.27,East,81,2.0,7.0,86,0.00,,CLR,0.00,0.00,VWS V14.01,2013-01-11 01:56:00,
2013-01-10 21:01:00,69.5,65.5,30.27,ENE,71,2.0,2.0,87,0.00,,CLR,0.00,0.00,VWS V14.01,2013-01-11 02:01:00,
2013-01-10 21:06:00,69.3,65.3,30.27,East,94,2.0,3.0,87,0.00,,CLR,0.00,0.00,VWS V14.01,2013-01-11 02:06:00,
2013-01-10 21:11:00,69.0,65.0,30.27,ESE,104,1.0,3.0,87,0.00,,CLR,0.00,0.00,VWS V14.01,2013-01-11 02:11:00,
2013-01-10 21:16:00,68.8,65.1,30.27,East,98,1.0,3.0,88,0.00,,CLR,0.00,0.00,VWS V14.01,2013-01-11 02:16:00,
2013-01-10 21:21:00,68.7,65.0,30.28,East,93,1.0,3.0,88,0.00,,CLR,0.00,0.00,VWS V14.01,2013-01-11 02:21:00,
2013-01-10 21:26:00,68.6,64.9,30.28,East,80,0.0,3.0,88,0.00,,CLR,0.00,0.00,VWS V14.01,2013-01-11 02:26:00,
2013-01-10 21:31:00,68.4,64.7,30.28,East,80,1.0,2.0,88,0.00,,CLR,0.00,0.00,VWS V14.01,2013-01-11 02:31:00,
2013-01-10 21:36:00,68.2,64.8,30.28,East,83,2.0,3.0,89,0.00,,CLR,0.00,0.00,VWS V14.01,2013-01-11 02:36:00,
2013-01-10 21:41:00,68.0,64.6,30.28,East,96,3.0,5.0,89,0.00,,CLR,0.00,0.00,VWS V14.01,2013-01-11 02:41:00,
2013-01-10 21:47:00,67.9,64.5,30.28,East,81,1.0,5.0,89,0.00,,CLR,0.00,0.00,VWS V14.01,2013-01-11 02:47:00,
2013-01-10 21:52:00,67.8,64.4,30.28,East,81,0.0,5.0,89,0.00,,CLR,0.00,0.00,VWS V14.01,2013-01-11 02:52:00,
2013-01-10 21:57:00,67.3,64.3,30.27,East,85,2.0,5.0,90,0.00,,CLR,0.00,0.00,VWS V14.01,2013-01-11 02:57:00,
2013-01-10 22:02:00,67.2,64.2,30.27,ENE,76,1.0,2.0,90,0.00,,CLR,0.00,0.00,VWS V14.01,2013-01-11 03:02:00,
2013-01-10 22:07:00,67.0,64.3,30.27,ENE,78,0.0,2.0,91,0.00,,CLR,0.00,0.00,VWS V14.01,2013-01-11 03:07:00,
2013-01-10 22:12:00,66.7,64.0,30.27,ENE,78,1.0,2.0,91,0.00,,CLR,0.00,0.00,VWS V14.01,2013-01-11 03:12:00,
2013-01-10 22:17:00,66.6,64.2,30.27,East,97,2.0,3.0,92,0.00,,CLR,0.00,0.00,VWS V14.01,2013-01-11 03:17:00,
2013-01-10 22:22:00,66.6,64.2,30.27,ENE,76,1.0,3.0,92,0.00,,CLR,0.00,0.00,VWS V14.01,2013-01-11 03:22:00,
2013-01-10 22:27:00,66.4,64.0,30.27,East,82,2.0,3.0,92,0.00,,CLR,0.00,0.00,VWS V14.01,2013-01-11 03:27:00,
2013-01-10 22:32:00,66.2,63.8,30.27,ENE,76,3.0,3.0,92,0.00,,CLR,0.00,0.00,VWS V14.01,2013-01-11 03:32:00,
2013-01-10 22:37:00,66.1,63.7,30.27,East,94,2.0,3.0,92,0.00,,CLR,0.00,0.00,VWS V14.01,2013-01-11 03:37:00,
2013-01-10 22:42:00,65.9,63.5,30.27,East,83,1.0,3.0,92,0.00,,CLR,0.00,0.00,VWS V14.01,2013-01-11 03:42:00,
2013-01-10 22:47:00,65.5,63.4,30.27,East,94,0.0,3.0,93,0.00,,CLR,0.00,0.00,VWS V14.01,2013-01-11 03:47:00,
2013-01-10 22:52:00,65.6,63.5,30.27,East,95,3.0,3.0,93,0.00,,CLR,0.00,0.00,VWS V14.01,2013-01-11 03:52:00,
2013-01-10 22:57:00,65.5,63.4,30.27,East,96,0.0,3.0,93,0.00,,CLR,0.00,0.00,VWS V14.01,2013-01-11 03:57:00,
2013-01-10 23:02:00,65.2,63.4,30.27,East,95,2.0,2.0,94,0.00,,CLR,0.00,0.00,VWS V14.01,2013-01-11 04:02:00,
2013-01-10 23:07:00,65.4,63.6,30.27,East,94,0.0,3.0,94,0.00,,CLR,0.00,0.00,VWS V14.01,2013-01-11 04:07:00,
2013-01-10 23:12:00,65.3,63.5,30.27,ESE,105,3.0,4.0,94,0.00,,CLR,0.00,0.00,VWS V14.01,2013-01-11 04:12:00,
2013-01-10 23:17:00,65.3,63.5,30.27,East,90,1.0,4.0,94,0.00,,CLR,0.00,0.00,VWS V14.01,2013-01-11 04:17:00,
2013-01-10 23:22:00,65.4,63.6,30.27,East,99,2.0,4.0,94,0.00,,CLR,0.00,0.00,VWS V14.01,2013-01-11 04:22:00,
2013-01-10 23:27:00,65.4,63.6,30.27,ESE,103,2.0,4.0,94,0.00,,CLR,0.00,0.00,VWS V14.01,2013-01-11 04:27:00,
2013-01-10 23:32:00,65.4,63.6,30.26,ESE,102,1.0,2.0,94,0.00,,CLR,0.00,0.00,VWS V14.01,2013-01-11 04:32:00,
2013-01-10 23:37:00,65.3,63.5,30.26,East,96,0.0,2.0,94,0.00,,CLR,0.00,0.00,VWS V14.01,2013-01-11 04:37:00,
2013-01-10 23:43:00,65.1,63.3,30.26,ESE,102,0.0,3.0,94,0.00,,CLR,0.00,0.00,VWS V14.01,2013-01-11 04:43:00,
2013-01-10 23:48:00,64.5,62.7,30.26,ESE,115,0.0,3.0,94,0.00,,CLR,0.00,0.00,VWS V14.01,2013-01-11 04:48:00,
2013-01-10 23:53:00,64.4,62.9,30.26,ESE,115,0.0,3.0,95,0.00,,CLR,0.00,0.00,VWS V14.01,2013-01-11 04:53:00,
2013-01-10 23:58:00,64.4,62.9,30.26,ESE,105,0.0,3.0,95,0.00,,CLR,0.00,0.00,VWS V14.01,2013-01-11 04:58:00,